COSMO-SKYMED 4

Last updated on Sat Apr 26 2025 00:02:25 GMT+0000 (Coordinated Universal Time)

1 37216U 10060A 25115.55363468 .00001026 00000+0 13547-3 0 9991 2 37216 97.8875 300.2212 0001399 79.7813 280.3558 14.82138560782705
UTC large
Height (km)
Speed (km/s)
/
Latitude / Longitude
Inclination (degrees)
Orbital Period (minutes)
Azimuth
Elevation
Range (km)
Doppler Factor

Next 0 passes for location: London (51.5072 / 0.1276)

Sorry there are no passes over London.